SWA2378 PHNL-KLGB

Flight info

Callsign SWA2378
Flight time N/A
Altitude 35000
Route MKK5 CODDY EBBER R577 ETNIC/N0455F370 R577 ELKEY SXC SLI
Aircraft B38M/M-SDE1FGHILORVWXY/HB1

Departure

Time 2026-05-03 23:33
Airport Daniel K. Inouye International Airport (PHNL)

Arrival

Time N/A
Airport Long Beach International Airport (KLGB)
Time Latitude Longitude Altitude Speed Heading
2026-05-03 23:15 21.32959 -157.92079 41 ft 0 kts 98°
2026-05-03 23:26 21.32961 -157.92091 41 ft 3 kts 98°
2026-05-03 23:27 21.32964 -157.92117 41 ft 3 kts 98°
2026-05-03 23:27 21.32968 -157.92145 41 ft 3 kts 98°
2026-05-03 23:27 21.32970 -157.92152 41 ft 1 kts 116°
2026-05-03 23:27 21.32972 -157.92157 41 ft 0 kts 126°
2026-05-03 23:28 21.32964 -157.92154 41 ft 2 kts 173°
2026-05-03 23:28 21.32957 -157.92154 41 ft 0 kts 189°
2026-05-03 23:28 21.32930 -157.92160 40 ft 9 kts 198°
2026-05-03 23:28 21.32844 -157.92235 40 ft 21 kts 229°
2026-05-03 23:29 21.32773 -157.92404 40 ft 25 kts 269°
2026-05-03 23:29 21.32774 -157.92581 39 ft 23 kts 269°
2026-05-03 23:29 21.32753 -157.92772 37 ft 27 kts 249°
2026-05-03 23:29 21.32743 -157.92987 34 ft 32 kts 269°
2026-05-03 23:30 21.32744 -157.93224 33 ft 31 kts 270°
2026-05-03 23:30 21.32745 -157.93474 33 ft 35 kts 270°
2026-05-03 23:30 21.32745 -157.93751 35 ft 38 kts 270°
2026-05-03 23:30 21.32743 -157.94028 34 ft 35 kts 271°
2026-05-03 23:31 21.32742 -157.94251 33 ft 23 kts 270°
2026-05-03 23:31 21.32675 -157.94333 33 ft 12 kts 170°
2026-05-03 23:31 21.32642 -157.94324 33 ft 0 kts 176°
2026-05-03 23:31 21.32598 -157.94322 33 ft 15 kts 179°
2026-05-03 23:32 21.32524 -157.94206 33 ft 31 kts 89°
2026-05-03 23:32 21.32525 -157.93747 30 ft 95 kts 89°
2026-05-03 23:32 21.32525 -157.92827 33 ft 150 kts 90°
2026-05-03 23:32 21.32502 -157.91550 148 ft 185 kts 89°
2026-05-03 23:33 21.32270 -157.90141 574 ft 208 kts 113°
2026-05-03 23:33 21.31267 -157.88919 1002 ft 240 kts 143°
2026-05-03 23:33 21.29616 -157.88290 1568 ft 262 kts 164°
2026-05-03 23:33 21.27809 -157.87923 2273 ft 269 kts 164°
2026-05-03 23:34 21.25971 -157.87521 2990 ft 269 kts 164°
2026-05-03 23:34 21.24136 -157.87105 3710 ft 270 kts 164°
2026-05-03 23:34 21.22382 -157.86462 4421 ft 269 kts 143°
2026-05-03 23:34 21.21128 -157.85005 4847 ft 276 kts 111°
2026-05-03 23:35 21.20818 -157.83037 5715 ft 267 kts 84°
2026-05-03 23:35 21.21157 -157.81071 6438 ft 270 kts 78°
2026-05-03 23:35 21.21394 -157.79065 7100 ft 274 kts 85°
2026-05-03 23:35 21.21549 -157.77039 7737 ft 278 kts 84°
2026-05-03 23:36 21.21747 -157.74963 8370 ft 282 kts 83°
2026-05-03 23:36 21.21963 -157.72884 9024 ft 286 kts 82°
2026-05-03 23:36 21.22196 -157.70746 9654 ft 290 kts 82°
2026-05-03 23:36 21.22433 -157.68610 10270 ft 294 kts 82°
2026-05-03 23:37 21.22681 -157.66356 10390 ft 316 kts 82°
2026-05-03 23:37 21.22953 -157.63933 10500 ft 336 kts 82°
2026-05-03 23:37 21.23235 -157.61406 10760 ft 349 kts 82°
2026-05-03 23:37 21.23524 -157.58783 11181 ft 357 kts 82°
2026-05-03 23:38 21.23816 -157.56149 11633 ft 362 kts 82°
2026-05-03 23:38 21.24120 -157.53427 12116 ft 367 kts 82°
2026-05-03 23:38 21.24423 -157.50731 12598 ft 370 kts 82°
2026-05-03 23:38 21.24728 -157.47978 13037 ft 375 kts 83°
2026-05-03 23:39 21.25034 -157.45200 13528 ft 377 kts 82°
2026-05-03 23:39 21.25346 -157.42375 13964 ft 380 kts 83°
2026-05-03 23:39 21.25654 -157.39560 14386 ft 384 kts 83°
2026-05-03 23:39 21.25962 -157.36708 14834 ft 387 kts 83°
2026-05-03 23:40 21.26274 -157.33859 15276 ft 389 kts 83°
2026-05-03 23:40 21.26592 -157.30955 15678 ft 392 kts 83°
2026-05-03 23:40 21.26910 -157.28055 16072 ft 395 kts 83°
2026-05-03 23:40 21.27231 -157.25101 16469 ft 398 kts 83°
2026-05-03 23:41 21.27550 -157.22176 16853 ft 400 kts 83°
2026-05-03 23:41 21.27874 -157.19211 17231 ft 403 kts 83°
2026-05-03 23:41 21.28190 -157.16231 17574 ft 405 kts 83°
2026-05-03 23:41 21.28507 -157.13225 18003 ft 406 kts 83°
2026-05-03 23:42 21.28827 -157.10214 18368 ft 408 kts 83°
2026-05-03 23:42 21.29148 -157.07205 18800 ft 409 kts 83°
2026-05-03 23:42 21.29475 -157.04149 19174 ft 410 kts 83°
2026-05-03 23:42 21.29800 -157.01108 19533 ft 412 kts 83°
2026-05-03 23:43 21.30124 -156.98056 19904 ft 413 kts 83°
2026-05-03 23:43 21.30449 -156.94997 20273 ft 414 kts 83°
2026-05-03 23:43 21.30780 -156.91933 20634 ft 416 kts 83°
2026-05-03 23:43 21.31104 -156.88884 20966 ft 417 kts 83°
2026-05-03 23:44 21.31432 -156.85780 21329 ft 417 kts 83°
2026-05-03 23:44 21.31762 -156.82672 21660 ft 419 kts 83°
2026-05-03 23:44 21.32089 -156.79602 21968 ft 420 kts 83°
2026-05-03 23:44 21.32417 -156.76491 22335 ft 419 kts 83°
2026-05-03 23:45 21.32745 -156.73363 22597 ft 421 kts 83°
2026-05-03 23:45 21.33071 -156.70276 22829 ft 424 kts 82°
2026-05-03 23:45 21.33399 -156.67127 23100 ft 426 kts 83°
2026-05-03 23:45 21.33638 -156.63931 23327 ft 429 kts 85°
2026-05-03 23:46 21.33820 -156.60767 23586 ft 430 kts 85°
2026-05-03 23:46 21.34009 -156.57561 23841 ft 432 kts 85°
2026-05-03 23:46 21.34202 -156.54346 24077 ft 434 kts 85°
2026-05-03 23:46 21.34402 -156.51111 24322 ft 435 kts 85°
2026-05-03 23:47 21.34602 -156.47875 24567 ft 437 kts 85°
2026-05-03 23:47 21.34803 -156.44621 24825 ft 439 kts 85°
2026-05-03 23:47 21.35001 -156.41357 25034 ft 441 kts 85°
2026-05-03 23:47 21.35203 -156.38060 25276 ft 443 kts 84°
2026-05-03 23:48 21.35400 -156.34788 25486 ft 445 kts 85°
2026-05-03 23:48 21.35607 -156.31451 25702 ft 447 kts 85°
2026-05-03 23:48 21.35813 -156.28117 25920 ft 448 kts 85°
2026-05-03 23:48 21.36013 -156.24814 26142 ft 449 kts 85°
2026-05-03 23:49 21.36213 -156.21457 26357 ft 451 kts 85°
2026-05-03 23:49 21.36417 -156.18114 26545 ft 453 kts 84°
2026-05-03 23:49 21.36622 -156.14720 26750 ft 454 kts 85°
2026-05-03 23:49 21.36826 -156.11366 26950 ft 455 kts 84°
2026-05-03 23:50 21.37030 -156.07976 27132 ft 457 kts 84°
2026-05-03 23:50 21.37236 -156.04544 27310 ft 458 kts 84°
2026-05-03 23:50 21.37438 -156.01158 27468 ft 460 kts 84°
2026-05-03 23:50 21.37642 -155.97740 27651 ft 462 kts 84°
2026-05-03 23:51 21.37845 -155.94293 27827 ft 463 kts 84°
2026-05-03 23:51 21.38046 -155.90868 27975 ft 465 kts 84°
2026-05-03 23:51 21.38248 -155.87415 28129 ft 466 kts 84°
2026-05-03 23:51 21.38450 -155.83928 28301 ft 467 kts 84°
2026-05-03 23:52 21.38652 -155.80463 28419 ft 469 kts 84°
2026-05-03 23:52 21.38862 -155.76932 28619 ft 470 kts 84°
2026-05-03 23:52 21.39066 -155.73445 28747 ft 471 kts 84°
2026-05-03 23:52 21.39272 -155.69945 28903 ft 473 kts 84°
2026-05-03 23:53 21.39474 -155.66441 29036 ft 474 kts 84°
2026-05-03 23:53 21.39673 -155.62897 29211 ft 474 kts 84°
2026-05-03 23:53 21.39873 -155.59376 29388 ft 475 kts 84°
2026-05-03 23:53 21.40074 -155.55843 29563 ft 475 kts 84°
2026-05-03 23:54 21.40276 -155.52300 29724 ft 475 kts 84°
2026-05-03 23:54 21.40472 -155.48814 29903 ft 475 kts 84°
2026-05-03 23:54 21.40672 -155.45262 30058 ft 476 kts 84°
2026-05-03 23:54 21.40872 -155.41696 30211 ft 476 kts 84°
2026-05-03 23:55 21.41069 -155.38158 30403 ft 476 kts 84°
2026-05-03 23:55 21.41266 -155.34656 30565 ft 476 kts 85°
2026-05-03 23:55 21.41466 -155.31107 30710 ft 476 kts 85°
2026-05-03 23:55 21.41664 -155.27539 30936 ft 475 kts 85°
2026-05-03 23:56 21.41857 -155.24037 31072 ft 476 kts 85°
2026-05-03 23:56 21.42051 -155.20489 31235 ft 475 kts 85°
2026-05-03 23:56 21.42246 -155.16959 31403 ft 475 kts 85°
2026-05-03 23:56 21.42444 -155.13413 31550 ft 475 kts 84°
2026-05-03 23:57 21.42834 -155.09947 31683 ft 474 kts 79°
2026-05-03 23:57 21.43406 -155.06474 31853 ft 473 kts 78°
2026-05-03 23:57 21.43973 -155.03009 31980 ft 474 kts 78°
2026-05-03 23:57 21.44521 -154.99536 32112 ft 474 kts 79°
2026-05-03 23:58 21.45064 -154.96033 32295 ft 473 kts 79°
2026-05-03 23:58 21.45598 -154.92546 32410 ft 474 kts 79°
2026-05-03 23:58 21.46129 -154.89061 32531 ft 474 kts 79°
2026-05-03 23:58 21.46652 -154.85603 32665 ft 474 kts 79°
2026-05-03 23:59 21.47183 -154.82104 32836 ft 473 kts 79°
2026-05-03 23:59 21.47710 -154.78621 32943 ft 474 kts 79°
2026-05-03 23:59 21.48225 -154.75171 33086 ft 473 kts 79°
2026-05-03 23:59 21.48746 -154.71675 33226 ft 473 kts 79°
2026-05-04 00:00 21.49266 -154.68188 33385 ft 472 kts 79°
2026-05-04 00:00 21.49782 -154.64710 33496 ft 473 kts 79°
2026-05-04 00:00 21.50297 -154.61241 33609 ft 473 kts 79°
2026-05-04 00:00 21.50807 -154.57797 33749 ft 473 kts 79°
2026-05-04 00:01 21.51322 -154.54315 33901 ft 473 kts 79°
2026-05-04 00:01 21.51842 -154.50797 34005 ft 473 kts 79°
2026-05-04 00:01 21.52354 -154.47334 34164 ft 472 kts 79°
2026-05-04 00:01 21.52869 -154.43832 34240 ft 473 kts 79°
2026-05-04 00:02 21.53381 -154.40355 34369 ft 473 kts 79°
2026-05-04 00:02 21.53895 -154.36883 34546 ft 472 kts 79°
2026-05-04 00:02 21.54404 -154.33432 34652 ft 472 kts 80°
2026-05-04 00:02 21.54912 -154.29973 34780 ft 472 kts 80°
2026-05-04 00:03 21.55932 -154.22986 34991 ft 472 kts 80°
2026-05-04 00:03 21.56436 -154.19522 35100 ft 471 kts 80°
2026-05-04 00:03 21.56935 -154.16087 35083 ft 472 kts 80°
2026-05-04 00:04 21.57944 -154.09125 35081 ft 472 kts 80°
2026-05-04 00:04 21.58954 -154.02144 35084 ft 472 kts 80°
2026-05-04 00:05 21.59958 -153.95207 35082 ft 472 kts 80°
2026-05-04 00:05 21.60959 -153.88243 35082 ft 473 kts 80°
2026-05-04 00:06 21.61962 -153.81259 35086 ft 474 kts 80°
2026-05-04 00:06 21.62954 -153.74326 35084 ft 473 kts 80°
2026-05-04 00:07 21.63950 -153.67339 35075 ft 472 kts 80°
2026-05-04 00:07 21.64938 -153.60394 35071 ft 472 kts 80°
2026-05-04 00:08 21.65922 -153.53432 35072 ft 472 kts 80°
2026-05-04 00:08 21.66905 -153.46451 35067 ft 472 kts 80°
2026-05-04 00:09 21.67889 -153.39513 35070 ft 473 kts 80°
2026-05-04 00:09 21.68867 -153.32553 35069 ft 473 kts 81°
2026-05-04 00:10 21.69848 -153.25577 35071 ft 473 kts 81°
2026-05-04 00:10 21.70824 -153.18600 35074 ft 473 kts 81°
2026-05-04 00:11 21.72042 -153.11653 35057 ft 472 kts 68°
2026-05-04 00:11 21.73492 -153.08510 35085 ft 469 kts 56°
2026-05-04 00:11 21.75281 -153.05566 35074 ft 469 kts 55°
2026-05-04 00:12 21.78680 -152.99606 35072 ft 470 kts 58°
2026-05-04 00:12 21.81923 -152.93477 35074 ft 471 kts 59°
2026-05-04 00:13 21.85100 -152.87340 35072 ft 470 kts 60°
2026-05-04 00:13 21.88231 -152.81212 35074 ft 469 kts 60°
2026-05-04 00:14 21.91362 -152.75012 35075 ft 470 kts 60°
2026-05-04 00:14 21.94477 -152.68822 35079 ft 471 kts 60°
2026-05-04 00:15 21.97594 -152.62619 35079 ft 470 kts 60°
2026-05-04 00:15 22.00691 -152.56444 35077 ft 469 kts 60°
2026-05-04 00:16 22.03776 -152.50282 35084 ft 470 kts 60°
2026-05-04 00:16 22.06884 -152.44066 35083 ft 471 kts 60°
2026-05-04 00:17 22.09965 -152.37894 35082 ft 471 kts 60°
2026-05-04 00:17 22.13069 -152.31653 35086 ft 469 kts 60°
2026-05-04 00:18 22.16152 -152.25453 35086 ft 471 kts 60°
2026-05-04 00:18 22.19237 -152.19240 35088 ft 472 kts 60°
2026-05-04 00:19 22.22336 -152.13003 35089 ft 471 kts 60°
2026-05-04 00:19 22.25422 -152.06786 35091 ft 470 kts 60°
2026-05-04 00:20 22.28493 -152.00583 35091 ft 470 kts 60°
2026-05-04 00:20 22.31554 -151.94392 35092 ft 471 kts 60°
2026-05-04 00:21 22.34649 -151.88126 35093 ft 472 kts 60°
2026-05-04 00:21 22.37704 -151.81895 35090 ft 470 kts 60°
2026-05-04 00:22 22.40744 -151.75684 35091 ft 469 kts 60°
2026-05-04 00:22 22.43783 -151.69473 35092 ft 470 kts 60°
2026-05-04 00:23 22.46855 -151.63193 35094 ft 472 kts 60°
2026-05-04 00:23 22.49903 -151.56947 35093 ft 471 kts 60°
2026-05-04 00:24 22.52945 -151.50705 35092 ft 470 kts 60°
2026-05-04 00:24 22.55989 -151.44449 35094 ft 470 kts 60°
2026-05-04 00:25 22.59016 -151.38219 35092 ft 469 kts 60°
2026-05-04 00:25 22.62045 -151.31984 35093 ft 469 kts 60°
2026-05-04 00:26 22.65070 -151.25743 35092 ft 470 kts 60°
2026-05-04 00:26 22.68116 -151.19467 35093 ft 471 kts 60°
2026-05-04 00:27 22.71144 -151.13202 35095 ft 471 kts 60°
2026-05-04 00:27 22.74172 -151.06932 35095 ft 471 kts 60°
2026-05-04 00:28 22.77215 -151.00633 35093 ft 470 kts 60°
2026-05-04 00:28 22.80233 -150.94373 35090 ft 470 kts 60°
2026-05-04 00:29 22.83242 -150.88124 35091 ft 470 kts 60°
2026-05-04 00:29 22.86267 -150.81828 35088 ft 469 kts 60°
2026-05-04 00:30 22.89285 -150.75543 35091 ft 469 kts 60°
2026-05-04 00:30 22.92289 -150.69276 35089 ft 470 kts 60°
2026-05-04 00:31 22.95313 -150.62970 35090 ft 471 kts 60°
2026-05-04 00:31 22.98317 -150.56691 35093 ft 470 kts 61°
2026-05-04 00:32 23.01322 -150.50400 35091 ft 470 kts 61°
2026-05-04 00:32 23.04329 -150.44099 35090 ft 470 kts 61°
2026-05-04 00:33 23.08836 -150.34628 35089 ft 470 kts 61°
2026-05-04 00:34 23.11819 -150.28363 35089 ft 469 kts 61°
2026-05-04 00:34 23.14803 -150.22076 35093 ft 470 kts 61°
2026-05-04 00:35 23.17808 -150.15744 35089 ft 470 kts 61°
2026-05-04 00:35 23.20805 -150.09422 35089 ft 469 kts 61°
2026-05-04 00:36 23.23782 -150.03131 35093 ft 470 kts 61°
2026-05-04 00:36 23.26758 -149.96834 35094 ft 470 kts 61°
2026-05-04 00:37 23.29736 -149.90517 35091 ft 470 kts 61°
2026-05-04 00:37 23.32711 -149.84199 35094 ft 468 kts 61°
2026-05-04 00:38 23.35686 -149.77882 35090 ft 468 kts 61°
2026-05-04 00:38 23.38647 -149.71593 35095 ft 470 kts 61°
2026-05-04 00:39 23.41628 -149.65236 35091 ft 470 kts 61°
2026-05-04 00:39 23.44602 -149.58903 35093 ft 468 kts 61°
2026-05-04 00:40 23.47533 -149.52638 35093 ft 468 kts 61°
2026-05-04 00:40 23.50496 -149.46300 35091 ft 469 kts 61°
2026-05-04 00:41 23.53451 -149.39975 35091 ft 468 kts 61°
2026-05-04 00:41 23.56411 -149.33633 35092 ft 468 kts 62°
2026-05-04 00:42 23.59342 -149.27345 35092 ft 469 kts 62°
2026-05-04 00:42 23.62301 -149.20995 35092 ft 469 kts 62°
2026-05-04 00:43 23.65251 -149.14636 35092 ft 468 kts 62°
2026-05-04 00:43 23.68169 -149.08342 35093 ft 467 kts 62°
2026-05-04 00:44 23.71095 -149.02029 35093 ft 467 kts 62°
2026-05-04 00:44 23.74034 -148.95680 35091 ft 468 kts 62°
2026-05-04 00:45 23.76948 -148.89378 35091 ft 468 kts 61°
2026-05-04 00:45 23.79886 -148.83008 35090 ft 469 kts 61°
2026-05-04 00:46 23.82824 -148.76628 35091 ft 469 kts 61°
2026-05-04 00:46 23.85733 -148.70311 35091 ft 468 kts 61°
2026-05-04 00:47 23.88659 -148.63947 35091 ft 468 kts 61°
2026-05-04 00:47 23.91584 -148.57573 35092 ft 469 kts 61°
2026-05-04 00:48 23.94493 -148.51228 35092 ft 468 kts 61°
2026-05-04 00:48 23.97400 -148.44888 35091 ft 467 kts 61°
2026-05-04 00:49 24.00308 -148.38522 35091 ft 468 kts 61°
2026-05-04 00:49 24.03213 -148.32163 35091 ft 469 kts 62°
2026-05-04 00:50 24.06115 -148.25800 35092 ft 469 kts 62°
2026-05-04 00:50 24.09027 -148.19402 35091 ft 468 kts 62°
2026-05-04 00:51 24.11919 -148.13048 35095 ft 468 kts 62°
2026-05-04 00:51 24.14813 -148.06674 35092 ft 469 kts 61°
2026-05-04 00:52 24.17720 -148.00255 35095 ft 470 kts 61°
2026-05-04 00:52 24.20627 -147.93840 35098 ft 470 kts 61°
2026-05-04 00:53 24.23507 -147.87479 35097 ft 469 kts 61°
2026-05-04 00:53 24.26388 -147.81097 35101 ft 467 kts 61°
2026-05-04 00:54 24.29279 -147.74696 35102 ft 467 kts 61°
2026-05-04 00:54 24.32144 -147.68330 35100 ft 468 kts 61°
2026-05-04 00:55 24.35041 -147.61894 35102 ft 468 kts 61°
2026-05-04 00:55 24.37891 -147.55545 35105 ft 467 kts 61°
2026-05-04 00:56 24.40773 -147.49115 35109 ft 467 kts 61°
2026-05-04 00:56 24.43630 -147.42740 35110 ft 468 kts 61°
2026-05-04 00:57 24.46506 -147.36310 35112 ft 467 kts 61°
2026-05-04 00:57 24.49357 -147.29935 35111 ft 468 kts 61°
2026-05-04 00:58 24.52206 -147.23550 35112 ft 468 kts 61°
2026-05-04 00:58 24.55054 -147.17154 35117 ft 467 kts 62°
2026-05-04 00:59 24.57903 -147.10747 35117 ft 467 kts 61°
2026-05-04 00:59 24.60757 -147.04321 35113 ft 466 kts 61°
2026-05-04 01:00 24.63583 -146.97954 35117 ft 466 kts 61°
2026-05-04 01:00 24.66422 -146.91542 35113 ft 467 kts 61°
2026-05-04 01:01 24.69249 -146.85153 35116 ft 467 kts 61°
2026-05-04 01:01 24.72089 -146.78728 35120 ft 467 kts 61°
2026-05-04 01:02 24.74912 -146.72325 35123 ft 466 kts 61°
2026-05-04 01:02 24.77739 -146.65904 35120 ft 465 kts 61°
2026-05-04 01:03 24.80542 -146.59528 35122 ft 465 kts 61°
2026-05-04 01:03 24.83349 -146.53140 35124 ft 465 kts 61°
2026-05-04 01:04 24.86169 -146.46707 35122 ft 465 kts 61°
2026-05-04 01:04 24.88966 -146.40334 35129 ft 464 kts 61°
2026-05-04 01:05 24.91762 -146.33936 35128 ft 465 kts 61°
2026-05-04 01:05 24.94574 -146.27499 35128 ft 465 kts 61°
2026-05-04 01:06 24.97355 -146.21121 35131 ft 464 kts 61°
2026-05-04 01:06 25.00137 -146.14728 35127 ft 463 kts 61°
2026-05-04 01:07 25.02910 -146.08350 35129 ft 463 kts 61°
2026-05-04 01:07 25.05696 -146.01945 35132 ft 463 kts 61°
2026-05-04 01:08 25.08460 -145.95564 35133 ft 463 kts 61°
2026-05-04 01:08 25.11247 -145.89133 35133 ft 462 kts 61°
2026-05-04 01:09 25.13996 -145.82768 35131 ft 462 kts 61°
2026-05-04 01:09 25.16745 -145.76399 35131 ft 462 kts 61°
2026-05-04 01:10 25.19503 -145.70003 35131 ft 462 kts 61°
2026-05-04 01:10 25.22259 -145.63591 35133 ft 462 kts 61°
2026-05-04 01:11 25.25002 -145.57214 35133 ft 463 kts 61°
2026-05-04 01:11 25.27772 -145.50771 35132 ft 462 kts 61°
2026-05-04 01:12 25.30501 -145.44392 35131 ft 461 kts 60°
2026-05-04 01:12 25.33233 -145.37997 35132 ft 461 kts 60°
2026-05-04 01:13 25.35969 -145.31587 35134 ft 461 kts 61°
2026-05-04 01:13 25.38697 -145.25200 35133 ft 460 kts 61°
2026-05-04 01:14 25.41411 -145.18822 35132 ft 461 kts 61°
2026-05-04 01:14 25.44139 -145.12401 35131 ft 461 kts 61°
2026-05-04 01:15 25.46865 -145.05980 35131 ft 460 kts 61°
2026-05-04 01:15 25.49565 -144.99600 35132 ft 460 kts 61°
2026-05-04 01:16 25.52287 -144.93172 35132 ft 460 kts 60°
2026-05-04 01:16 25.54989 -144.86772 35131 ft 459 kts 61°
2026-05-04 01:17 25.57672 -144.80415 35132 ft 459 kts 60°
2026-05-04 01:17 25.60382 -144.73987 35133 ft 459 kts 60°
2026-05-04 01:18 25.63073 -144.67593 35131 ft 459 kts 60°
2026-05-04 01:18 25.65758 -144.61191 35132 ft 459 kts 60°
2026-05-04 01:19 25.68432 -144.54825 35131 ft 457 kts 60°
2026-05-04 01:19 25.71107 -144.48434 35132 ft 457 kts 60°
2026-05-04 01:20 25.73784 -144.42026 35131 ft 457 kts 60°
2026-05-04 01:20 25.76442 -144.35661 35132 ft 458 kts 60°
2026-05-04 01:21 25.79120 -144.29246 35132 ft 458 kts 61°
2026-05-04 01:21 25.81779 -144.22849 35132 ft 458 kts 61°
2026-05-04 01:22 25.84432 -144.16475 35132 ft 457 kts 61°
2026-05-04 01:22 25.87083 -144.10083 35131 ft 456 kts 61°
2026-05-04 01:23 25.89724 -144.03713 35132 ft 454 kts 61°
2026-05-04 01:23 25.92372 -143.97311 35132 ft 456 kts 61°
2026-05-04 01:24 25.94997 -143.90955 35132 ft 455 kts 61°
2026-05-04 01:24 25.97640 -143.84549 35134 ft 454 kts 61°
2026-05-04 01:25 26.00256 -143.78188 35133 ft 454 kts 61°
2026-05-04 01:25 26.02877 -143.71817 35134 ft 454 kts 61°
2026-05-04 01:26 26.05507 -143.65422 35131 ft 454 kts 60°
2026-05-04 01:26 26.08101 -143.59102 35134 ft 453 kts 61°
2026-05-04 01:27 26.10714 -143.52713 35136 ft 452 kts 61°
2026-05-04 01:27 26.13302 -143.46374 35137 ft 452 kts 60°
2026-05-04 01:28 26.15889 -143.40039 35135 ft 452 kts 60°
2026-05-04 01:28 26.18491 -143.33656 35137 ft 451 kts 61°
2026-05-04 01:29 26.21061 -143.27341 35137 ft 450 kts 61°
2026-05-04 01:29 26.23636 -143.21001 35136 ft 448 kts 61°
2026-05-04 01:30 26.26211 -143.14661 35135 ft 451 kts 61°
2026-05-04 01:30 26.28799 -143.08275 35134 ft 452 kts 61°
2026-05-04 01:31 26.31356 -143.01949 35136 ft 450 kts 61°
2026-05-04 01:31 26.33919 -142.95604 35134 ft 450 kts 61°
2026-05-04 01:32 26.36482 -142.89246 35133 ft 449 kts 61°
2026-05-04 01:32 26.39029 -142.82912 35135 ft 447 kts 61°
2026-05-04 01:33 26.41556 -142.76634 35136 ft 445 kts 61°
2026-05-04 01:33 26.44090 -142.70316 35137 ft 446 kts 61°
2026-05-04 01:34 26.46611 -142.64033 35137 ft 446 kts 61°
2026-05-04 01:34 26.49121 -142.57750 35135 ft 444 kts 61°
2026-05-04 01:35 26.51637 -142.51463 35141 ft 444 kts 61°
2026-05-04 01:35 26.54149 -142.45163 35139 ft 443 kts 61°
2026-05-04 01:36 26.56638 -142.38911 35142 ft 441 kts 61°
2026-05-04 01:36 26.59125 -142.32667 35142 ft 441 kts 61°
2026-05-04 01:37 26.61601 -142.26439 35150 ft 442 kts 62°
2026-05-04 01:37 26.64084 -142.20174 35145 ft 441 kts 62°
2026-05-04 01:38 26.66569 -142.13893 35146 ft 440 kts 62°
2026-05-04 01:38 26.69028 -142.07675 35149 ft 439 kts 61°
2026-05-04 01:39 26.71483 -142.01443 35149 ft 437 kts 62°
2026-05-04 01:39 26.73926 -141.95252 35148 ft 437 kts 61°
2026-05-04 01:40 26.76368 -141.89053 35147 ft 437 kts 61°
2026-05-04 01:40 26.78809 -141.82829 35147 ft 437 kts 61°
2026-05-04 01:41 26.81237 -141.76637 35150 ft 436 kts 61°
2026-05-04 01:41 26.83669 -141.70428 35151 ft 436 kts 62°
2026-05-04 01:42 26.86092 -141.64241 35151 ft 435 kts 62°
2026-05-04 01:42 26.88513 -141.58046 35152 ft 435 kts 62°
2026-05-04 01:43 26.90933 -141.51836 35153 ft 433 kts 62°
2026-05-04 01:43 26.93324 -141.45694 35153 ft 432 kts 62°
2026-05-04 01:44 26.95713 -141.39537 35155 ft 431 kts 62°
2026-05-04 01:44 26.98089 -141.33426 35153 ft 430 kts 62°
2026-05-04 01:45 27.00477 -141.27266 35154 ft 430 kts 62°
2026-05-04 01:45 27.04033 -141.18054 35153 ft 430 kts 62°
2026-05-04 01:46 27.06402 -141.11914 35155 ft 429 kts 62°
2026-05-04 01:46 27.08758 -141.05812 35154 ft 428 kts 62°
2026-05-04 01:47 27.11114 -140.99687 35153 ft 428 kts 62°
2026-05-04 01:47 27.13469 -140.93568 35151 ft 427 kts 62°
2026-05-04 01:48 27.15806 -140.87474 35152 ft 426 kts 62°
2026-05-04 01:48 27.18141 -140.81370 35151 ft 426 kts 62°
2026-05-04 01:49 27.20481 -140.75266 35151 ft 427 kts 62°
2026-05-04 01:49 27.22813 -140.69165 35149 ft 428 kts 62°
2026-05-04 01:50 27.25146 -140.63032 35157 ft 426 kts 62°
2026-05-04 01:50 27.27482 -140.56898 35155 ft 428 kts 62°
2026-05-04 01:51 27.29808 -140.50774 35154 ft 428 kts 62°
2026-05-04 01:51 27.32147 -140.44609 35157 ft 427 kts 62°
2026-05-04 01:52 27.34461 -140.38500 35154 ft 427 kts 62°
2026-05-04 01:52 27.36794 -140.32341 35155 ft 427 kts 63°
2026-05-04 01:53 27.39097 -140.26233 35154 ft 427 kts 63°
2026-05-04 01:53 27.41417 -140.20087 35155 ft 426 kts 63°
2026-05-04 01:54 27.43715 -140.13986 35155 ft 426 kts 63°
2026-05-04 01:54 27.46036 -140.07817 35151 ft 426 kts 63°
2026-05-04 01:55 27.48323 -140.01712 35156 ft 426 kts 63°
2026-05-04 01:55 27.50627 -139.95567 35152 ft 427 kts 63°
2026-05-04 01:56 27.52924 -139.89433 35151 ft 425 kts 63°
2026-05-04 01:56 27.55204 -139.83318 35156 ft 424 kts 63°
2026-05-04 01:57 27.57494 -139.77193 35150 ft 426 kts 63°
2026-05-04 01:57 27.59782 -139.71039 35150 ft 426 kts 63°
2026-05-04 01:58 27.62068 -139.64891 35154 ft 426 kts 63°
2026-05-04 01:58 27.64345 -139.58757 35152 ft 424 kts 63°
2026-05-04 01:59 27.66617 -139.52634 35158 ft 424 kts 63°
2026-05-04 01:59 27.68890 -139.46498 35162 ft 425 kts 63°
2026-05-04 02:00 27.71159 -139.40334 35157 ft 424 kts 64°
2026-05-04 02:00 27.73429 -139.34187 35161 ft 425 kts 64°
2026-05-04 02:01 27.75692 -139.28035 35151 ft 425 kts 64°
2026-05-04 02:01 27.77953 -139.21890 35161 ft 425 kts 64°
2026-05-04 02:02 27.80188 -139.15794 35149 ft 422 kts 64°
2026-05-04 02:02 27.82428 -139.09679 35155 ft 422 kts 64°
2026-05-04 02:03 27.84677 -139.03546 35155 ft 423 kts 64°
2026-05-04 02:03 27.86927 -138.97392 35152 ft 424 kts 64°
2026-05-04 02:04 27.89151 -138.91287 35157 ft 424 kts 65°
2026-05-04 02:04 27.91399 -138.85097 35144 ft 423 kts 65°
2026-05-04 02:05 27.93623 -138.78973 35155 ft 424 kts 65°
2026-05-04 02:05 27.95842 -138.72833 35157 ft 423 kts 64°
2026-05-04 02:06 27.98077 -138.66679 35151 ft 423 kts 64°
2026-05-04 02:06 28.00300 -138.60522 35156 ft 424 kts 65°
2026-05-04 02:07 28.02514 -138.54373 35150 ft 424 kts 65°
2026-05-04 02:07 28.04733 -138.48204 35151 ft 424 kts 65°
2026-05-04 02:08 28.06968 -138.41997 35153 ft 425 kts 65°
2026-05-04 02:08 28.09192 -138.35799 35152 ft 426 kts 65°
2026-05-04 02:09 28.11427 -138.29564 35165 ft 430 kts 65°
2026-05-04 02:09 28.13671 -138.23294 35173 ft 436 kts 65°
2026-05-04 02:10 28.15969 -138.16852 35173 ft 442 kts 65°
2026-05-04 02:10 28.18267 -138.10391 35174 ft 447 kts 65°
2026-05-04 02:11 28.20603 -138.03851 35171 ft 451 kts 65°
2026-05-04 02:11 28.22953 -137.97227 35173 ft 453 kts 66°
2026-05-04 02:12 28.25298 -137.90608 35173 ft 451 kts 65°
2026-05-04 02:12 28.27615 -137.84058 35174 ft 450 kts 65°
2026-05-04 02:13 28.29934 -137.77473 35166 ft 452 kts 66°
2026-05-04 02:13 28.31112 -137.74141 35169 ft 453 kts 65°
2026-05-04 02:14 28.34784 -137.63727 35168 ft 456 kts 66°
2026-05-04 02:14 28.37116 -137.57083 35163 ft 454 kts 66°
2026-05-04 02:15 28.39441 -137.50455 35166 ft 454 kts 66°
2026-05-04 02:15 28.41774 -137.43787 35166 ft 455 kts 66°
2026-05-04 02:16 28.44091 -137.37152 35159 ft 455 kts 66°
2026-05-04 02:16 28.46432 -137.30432 35151 ft 457 kts 66°
2026-05-04 02:17 28.48758 -137.23758 35158 ft 457 kts 66°
2026-05-04 02:17 28.51082 -137.17064 35158 ft 455 kts 66°
2026-05-04 02:18 28.53392 -137.10396 35154 ft 456 kts 66°
2026-05-04 02:18 28.55720 -137.03671 35146 ft 457 kts 66°
2026-05-04 02:19 28.58052 -136.96936 35158 ft 457 kts 66°
2026-05-04 02:19 28.59185 -136.93640 35149 ft 445 kts 66°
2026-05-04 02:19 28.60297 -136.90404 35151 ft 429 kts 66°
2026-05-04 02:20 28.62445 -136.84148 35156 ft 427 kts 66°
2026-05-04 02:20 28.64625 -136.77812 35152 ft 434 kts 66°
2026-05-04 02:21 28.66822 -136.71411 35159 ft 436 kts 66°
2026-05-04 02:21 28.69013 -136.65024 35149 ft 434 kts 66°
2026-05-04 02:22 28.71204 -136.58604 35151 ft 434 kts 66°
2026-05-04 02:22 28.73380 -136.52211 35148 ft 435 kts 66°
2026-05-04 02:23 28.75564 -136.45805 35150 ft 436 kts 66°
2026-05-04 02:23 28.77747 -136.39384 35156 ft 437 kts 66°
2026-05-04 02:24 28.79934 -136.32962 35150 ft 435 kts 67°
2026-05-04 02:24 28.82111 -136.26540 35148 ft 435 kts 67°
2026-05-04 02:25 28.84290 -136.20088 35145 ft 440 kts 67°
2026-05-04 02:25 28.86490 -136.13553 35157 ft 446 kts 67°
2026-05-04 02:26 28.88730 -136.06921 35153 ft 451 kts 67°
2026-05-04 02:26 28.90995 -136.00183 35150 ft 456 kts 67°
2026-05-04 02:27 28.93272 -135.93413 35150 ft 459 kts 67°
2026-05-04 02:27 28.95556 -135.86589 35148 ft 459 kts 67°
2026-05-04 02:28 28.97710 -135.80131 35145 ft 458 kts 67°
2026-05-04 02:28 28.99913 -135.73528 35141 ft 460 kts 67°
2026-05-04 02:29 29.02188 -135.66692 35141 ft 462 kts 67°
2026-05-04 02:29 29.04477 -135.59796 35148 ft 463 kts 67°
2026-05-04 02:30 29.06749 -135.52960 35144 ft 464 kts 67°
2026-05-04 02:30 29.09034 -135.46062 35144 ft 465 kts 67°
2026-05-04 02:31 29.11316 -135.39172 35143 ft 468 kts 67°
2026-05-04 02:31 29.13611 -135.32201 35134 ft 469 kts 68°
2026-05-04 02:32 29.15917 -135.25200 35137 ft 469 kts 68°
2026-05-04 02:32 29.18197 -135.18248 35133 ft 470 kts 68°
2026-05-04 02:33 29.20486 -135.11264 35132 ft 472 kts 68°
2026-05-04 02:33 29.22802 -135.04207 35133 ft 473 kts 68°
2026-05-04 02:34 29.25088 -134.97192 35131 ft 472 kts 68°
2026-05-04 02:34 29.27377 -134.90144 35137 ft 474 kts 68°
2026-05-04 02:35 29.29677 -134.83073 35128 ft 475 kts 68°
2026-05-04 02:35 29.31962 -134.75996 35129 ft 476 kts 68°
2026-05-04 02:36 29.34268 -134.68889 35132 ft 479 kts 68°
2026-05-04 02:36 29.36566 -134.61778 35129 ft 479 kts 68°
2026-05-04 02:37 29.38875 -134.54610 35130 ft 479 kts 68°
2026-05-04 02:37 29.41043 -134.47879 35126 ft 481 kts 68°
2026-05-04 02:38 29.43065 -134.41612 35136 ft 484 kts 68°
2026-05-04 02:38 29.45372 -134.34395 35123 ft 485 kts 68°
2026-05-04 02:39 29.47694 -134.27135 35134 ft 487 kts 68°
2026-05-04 02:39 29.50018 -134.19842 35131 ft 486 kts 68°
2026-05-04 02:40 29.52347 -134.12573 35140 ft 489 kts 68°
2026-05-04 02:40 29.54670 -134.05260 35129 ft 489 kts 68°
2026-05-04 02:41 29.56999 -133.97906 35126 ft 490 kts 68°
2026-05-04 02:41 29.59323 -133.90561 35131 ft 492 kts 68°
2026-05-04 02:42 29.61649 -133.83157 35132 ft 492 kts 68°
2026-05-04 02:42 29.63960 -133.75804 35128 ft 490 kts 68°
2026-05-04 02:43 29.66263 -133.68489 35132 ft 491 kts 68°
2026-05-04 02:43 29.68579 -133.61107 35118 ft 493 kts 68°
2026-05-04 02:44 29.70909 -133.53687 35133 ft 496 kts 68°
2026-05-04 02:44 29.73221 -133.46251 35115 ft 491 kts 68°
2026-05-04 02:45 29.75517 -133.38888 35120 ft 494 kts 68°
2026-05-04 02:45 29.77841 -133.31413 35129 ft 496 kts 69°
2026-05-04 02:46 29.80144 -133.23997 35129 ft 493 kts 69°
2026-05-04 02:46 29.82435 -133.16583 35121 ft 494 kts 69°
2026-05-04 02:47 29.84731 -133.09155 35123 ft 494 kts 69°
2026-05-04 02:47 29.87009 -133.01747 35118 ft 491 kts 69°
2026-05-04 02:48 29.89300 -132.94315 35111 ft 495 kts 69°
2026-05-04 02:48 29.91598 -132.86810 35115 ft 498 kts 69°
2026-05-04 02:49 29.93901 -132.79283 35114 ft 499 kts 69°
2026-05-04 02:49 29.96187 -132.71785 35111 ft 499 kts 69°
2026-05-04 02:50 29.98279 -132.64916 35104 ft 498 kts 69°
2026-05-04 02:50 30.00524 -132.57532 35105 ft 501 kts 69°
2026-05-04 02:51 30.02805 -132.49992 35105 ft 505 kts 69°
2026-05-04 02:51 30.05113 -132.42355 35103 ft 507 kts 69°
2026-05-04 02:52 30.07447 -132.34648 35111 ft 510 kts 70°
2026-05-04 02:52 30.09778 -132.26909 35102 ft 511 kts 70°
2026-05-04 02:53 30.12088 -132.19188 35102 ft 513 kts 70°
2026-05-04 02:53 30.14443 -132.11356 35108 ft 516 kts 70°
2026-05-04 02:54 30.16763 -132.03551 35100 ft 516 kts 70°
2026-05-04 02:54 30.19105 -131.95703 35104 ft 517 kts 70°
2026-05-04 02:55 30.22606 -131.83917 35104 ft 521 kts 71°
2026-05-04 02:56 30.24958 -131.75970 35103 ft 525 kts 71°
2026-05-04 02:56 30.27327 -131.67934 35102 ft 527 kts 71°
2026-05-04 02:57 30.29691 -131.59940 35097 ft 526 kts 70°
2026-05-04 02:57 30.32036 -131.51939 35099 ft 530 kts 71°
2026-05-04 02:58 30.34408 -131.43852 35099 ft 534 kts 71°
2026-05-04 02:58 30.36726 -131.35938 35100 ft 535 kts 71°
2026-05-04 02:59 30.40999 -131.21252 35105 ft 539 kts 71°
2026-05-04 03:00 30.43276 -131.13399 35099 ft 540 kts 72°